Location: Marsån
(66.4167°N, 22.2833°E)
Time: 10:58:30
(UTC+00:00)

ERS-1 Rocket - Pass Details

Date: 24 February 2024
Orbit: 750 x 755 km, 98.3° (Epoch: 16 April)

Event Time Altitude Azimuth Distance (km) Brightness Sun altitude
Exits shadow 20:05:09 36° 227° (SW) 1,197 3.9 -27.0°
Maximum altitude 20:06:24 42° 263° (W) 1,075 3.9 -27.1°
Drops below altitude 10° 20:11:12 10° 334° (NNW) 2,296 6.4 -27.4°
Sets 20:13:38 0° 341° (NNW) 3,224 7.2 -27.6°
